Home > Weather > Al Ain > Past weeks

Flag for United Arab Emirates Weather for the Past 2 Weeks in Al Ain, Abu Dhabi, United Arab Emirates

Now
99 °F

Passing clouds.


Feels Like: 94 °F
Forecast: 76 / 105 °F
Wind: 7 mph from Northwest

Location: Al Ain International Airport

Current Time: May 4, 2016 at 12:52:57 PM

Latest Report: May 4, 2016 at 12:00 PM


Visibility: N/A

Pressure: 29.80 "Hg

Humidity: 15%

Dew Point: 43 °F

Location of Al AinLocation

Historic Weather in Al Ain — Graph

°F

Al Ain Temperature Yesterday

Maximum temperature yesterday: 100 °F (at 4:00 PM)
Minimum temperature yesterday: 73 °F (at 1:00 AM)
Average temperature yesterday: 85 °F

High & Low Weather Summary for the Past Weeks

 TemperatureHumidityPressure
High104 °F (Apr 26, 4:00 PM)89% (May 1, 8:00 AM)30.04 "Hg (May 1, 8:00 AM)
Low64 °F (Apr 22, 6:00 AM)8% (Apr 23, 12:00 PM)29.74 "Hg (Apr 24, 4:00 PM)
Average86 °F27%29.85 "Hg
* Reported Apr 19 11:00 AM — May 4 11:00 AM, Al Ain, Weather by CustomWeather, © 2016

Note: Actual official high and low records may vary slightly from our data, if they occured in-between our weather recording intervals... More about our weather records

Advertising

Al Ain Weather History for the Previous 24 Hours

Scroll right to see more
 ConditionsComfort  
Time TempWeatherWind HumidityBarometerVisibility
11:00 AM
Wed, May 4
97 °FPassing clouds.5 mph14%29.80 "HgN/A
10:00 AM95 °FSunny.2 mph14%29.83 "Hg10 mi
9:00 AM93 °FSunny.No wind19%29.80 "Hg10 mi
8:00 AM86 °FSunny.5 mph25%29.80 "Hg10 mi
7:00 AM81 °FSunny.7 mph28%29.77 "Hg10 mi
6:00 AM79 °FSunny.5 mph32%29.77 "Hg10 mi
5:00 AM79 °FClear.6 mph32%29.74 "Hg10 mi
4:00 AM81 °FClear.6 mph32%29.74 "Hg10 mi
3:00 AM81 °FClear.7 mph32%29.74 "Hg10 mi
2:00 AM81 °FClear.7 mph32%29.74 "Hg10 mi
1:00 AM79 °FClear.6 mph32%29.74 "Hg10 mi
12:00 AM82 °FClear.2 mph30%29.77 "Hg10 mi
11:00 PM
Tue, May 3
82 °FClear.6 mph28%29.80 "Hg10 mi
10:00 PM84 °FClear.7 mph27%29.80 "Hg10 mi
9:00 PM88 °FClear.6 mph24%29.80 "Hg10 mi
8:00 PM90 °FClear.7 mph22%29.80 "Hg10 mi
7:00 PM91 °FClear.9 mph20%29.77 "Hg10 mi
6:00 PM95 °FSunny.14 mph18%29.77 "Hg10 mi
5:00 PM97 °FSunny.18 mph17%29.77 "Hg10 mi
4:00 PM100 °FSunny.18 mph13%29.77 "Hg10 mi
3:00 PM99 °FPassing clouds.16 mph12%29.77 "HgN/A
2:00 PM99 °FPassing clouds.12 mph14%29.80 "HgN/A
1:00 PM95 °FSunny.15 mph15%29.83 "Hg10 mi
12:00 PM93 °FPassing clouds.10 mph16%29.83 "HgN/A
Weather by CustomWeather, © 2016

See weather overviewHow to use our weather pages